| time (UTC) | temp F | wind direction | speed MPH | gust MPH | rain 1hr in | rain 24hr in | rain mn in | humidity % | barometer mb |
| 20260503220018 | 70 | 141 | 1.0 | 5.0 | 0.00 | 0.00 | 0.00 | 61 | 1011.8 |
| 20260503215515 | 71 | 80 | 0.0 | 5.0 | 0.00 | 0.00 | 0.00 | 61 | 1011.9 |
| 20260503215014 | 71 | 120 | 2.0 | 5.0 | 0.00 | 0.00 | 0.00 | 61 | 1011.9 |
| 20260503214514 | 72 | 82 | 2.0 | 6.0 | 0.00 | 0.00 | 0.00 | 62 | 1012.1 |
| 20260503214014 | 74 | 222 | 2.0 | 7.0 | 0.00 | 0.00 | 0.00 | 54 | 1012.1 |
| 20260503213512 | 74 | 283 | 1.0 | 7.0 | 0.00 | 0.00 | 0.00 | 59 | 1012.0 |
| 20260503213011 | 73 | 60 | 1.0 | 8.0 | 0.00 | 0.00 | 0.00 | 58 | 1012.0 |
| 20260503212510 | 72 | 344 | 1.0 | 8.0 | 0.00 | 0.00 | 0.00 | 61 | 1012.2 |
| 20260503212009 | 72 | 300 | 1.0 | 6.0 | 0.00 | 0.00 | 0.00 | 65 | 1012.2 |
| 20260503211517 | 72 | 292 | 1.0 | 6.0 | 0.00 | 0.00 | 0.00 | 62 | 1012.2 |
| 20260503211008 | 72 | 46 | 1.0 | 4.0 | 0.00 | 0.00 | 0.00 | 61 | 1012.2 |
| 20260503210508 | 72 | 9 | 1.0 | 4.0 | 0.00 | 0.00 | 0.00 | 65 | 1012.2 |
| 20260503210015 | 71 | 309 | 1.0 | 8.0 | 0.00 | 0.00 | 0.00 | 63 | 1012.2 |
| 20260503205508 | 71 | 355 | 1.0 | 8.0 | 0.00 | 0.00 | 0.00 | 67 | 1012.4 |
| 20260503205006 | 71 | 36 | 1.0 | 5.0 | 0.00 | 0.00 | 0.00 | 69 | 1012.4 |
| 20260503204504 | 70 | 355 | 1.0 | 5.0 | 0.00 | 0.00 | 0.00 | 65 | 1012.4 |
| 20260503204003 | 71 | 331 | 1.0 | 4.0 | 0.00 | 0.00 | 0.00 | 65 | 1012.5 |
| 20260503203503 | 70 | 322 | 1.0 | 4.0 | 0.00 | 0.00 | 0.00 | 67 | 1012.6 |
| 20260503203007 | 70 | 9 | 1.0 | 4.0 | 0.00 | 0.00 | 0.00 | 69 | 1012.6 |
| 20260503202503 | 70 | 350 | 0.0 | 4.0 | 0.00 | 0.00 | 0.00 | 71 | 1012.7 |
| 20260503202001 | 69 | 235 | 0.0 | 5.0 | 0.00 | 0.00 | 0.00 | 67 | 1012.7 |
| 20260503201501 | 70 | 74 | 1.0 | 5.0 | 0.00 | 0.00 | 0.00 | 66 | 1012.8 |
| 20260503201102 | 70 | 318 | 0.0 | 5.0 | 0.00 | 0.00 | 0.00 | 68 | 1013.0 |
| 20260503200601 | 70 | 214 | 0.0 | 3.0 | 0.00 | 0.00 | 0.00 | 70 | 1013.0 |
| 20260503200201 | 69 | 182 | 1.0 | 4.0 | 0.00 | 0.00 | 0.00 | 68 | 1013.1 |
| 20260503195559 | 70 | 248 | 1.0 | 5.0 | 0.00 | 0.00 | 0.00 | 67 | 1013.1 |
| 20260503195058 | 70 | 288 | 1.0 | 5.0 | 0.00 | 0.00 | 0.00 | 69 | 1013.2 |
| 20260503194558 | 70 | 236 | 1.0 | 4.0 | 0.00 | 0.00 | 0.00 | 69 | 1013.3 |
| 20260503194100 | 69 | 231 | 1.0 | 6.0 | 0.00 | 0.00 | 0.00 | 67 | 1013.3 |
| 20260503193557 | 70 | 211 | 2.0 | 6.0 | 0.00 | 0.00 | 0.00 | 63 | 1013.3 |
| 20260503193055 | 69 | 305 | 0.0 | 3.0 | 0.00 | 0.00 | 0.00 | 69 | 1013.3 |
| 20260503192553 | 68 | 295 | 0.0 | 2.0 | 0.00 | 0.00 | 0.00 | 69 | 1013.4 |
| 20260503192052 | 68 | 129 | 0.0 | 3.0 | 0.00 | 0.00 | 0.00 | 71 | 1013.5 |
| 20260503191603 | 67 | 211 | 1.0 | 3.0 | 0.00 | 0.00 | 0.00 | 74 | 1013.4 |
| 20260503191051 | 66 | 163 | 1.0 | 3.0 | 0.00 | 0.00 | 0.00 | 76 | 1013.5 |
| 20260503190551 | 66 | 205 | 2.0 | 3.0 | 0.00 | 0.00 | 0.00 | 76 | 1013.5 |
| 20260503190055 | 66 | 206 | 2.0 | 3.0 | 0.00 | 0.00 | 0.00 | 76 | 1013.6 |
| 20260503185550 | 66 | 201 | 2.0 | 4.0 | 0.00 | 0.00 | 0.00 | 76 | 1013.5 |
| 20260503185050 | 66 | 202 | 2.0 | 4.0 | 0.00 | 0.00 | 0.00 | 75 | 1013.6 |
| 20260503184606 | 67 | 206 | 2.0 | 5.0 | 0.00 | 0.00 | 0.00 | 77 | 1013.7 |
| 20260503184050 | 67 | 195 | 2.0 | 5.0 | 0.00 | 0.00 | 0.00 | 78 | 1013.7 |
| 20260503183548 | 67 | 202 | 2.0 | 4.0 | 0.00 | 0.00 | 0.00 | 75 | 1013.9 |
| 20260503183048 | 66 | 204 | 2.0 | 4.0 | 0.00 | 0.00 | 0.00 | 75 | 1013.9 |
| 20260503182547 | 67 | 200 | 2.0 | 4.0 | 0.00 | 0.00 | 0.00 | 75 | 1013.8 |
| 20260503182047 | 66 | 190 | 1.0 | 3.0 | 0.00 | 0.00 | 0.00 | 75 | 1013.9 |
| 20260503181545 | 65 | 184 | 1.0 | 3.0 | 0.00 | 0.00 | 0.00 | 76 | 1013.9 |
| 20260503181044 | 65 | 194 | 2.0 | 4.0 | 0.00 | 0.00 | 0.00 | 77 | 1014.0 |
| 20260503180543 | 65 | 198 | 1.0 | 4.0 | 0.00 | 0.00 | 0.00 | 77 | 1014.0 |
| 20260503180042 | 65 | 173 | 2.0 | 4.0 | 0.00 | 0.00 | 0.00 | 75 | 1014.0 |
| 20260503175540 | 65 | 213 | 2.0 | 4.0 | 0.00 | 0.00 | 0.00 | 76 | 1014.1 |
| 20260503175039 | 64 | 187 | 1.0 | 3.0 | 0.00 | 0.00 | 0.00 | 78 | 1014.1 |
| 20260503174550 | 64 | 198 | 2.0 | 3.0 | 0.00 | 0.00 | 0.00 | 77 | 1014.2 |
| 20260503174037 | 63 | 105 | 1.0 | 4.0 | 0.00 | 0.00 | 0.00 | 78 | 1014.1 |
| 20260503173536 | 63 | 204 | 2.0 | 4.0 | 0.00 | 0.00 | 0.00 | 78 | 1014.2 |
| 20260503173036 | 63 | 201 | 1.0 | 4.0 | 0.00 | 0.00 | 0.00 | 77 | 1014.3 |
| 20260503172535 | 63 | 139 | 2.0 | 4.0 | 0.00 | 0.00 | 0.00 | 76 | 1014.3 |
| 20260503172034 | 63 | 123 | 1.0 | 4.0 | 0.00 | 0.00 | 0.00 | 75 | 1014.2 |
| 20260503171536 | 63 | 178 | 1.0 | 4.0 | 0.00 | 0.00 | 0.00 | 76 | 1014.4 |
| 20260503171034 | 63 | 155 | 1.0 | 4.0 | 0.00 | 0.00 | 0.00 | 76 | 1014.4 |
| 20260503170534 | 62 | 185 | 1.0 | 4.0 | 0.00 | 0.00 | 0.00 | 75 | 1014.4 |
| 20260503150530 | 57 | 68 | 0.0 | 3.0 | 0.00 | 0.00 | 0.00 | 86 | 1014.8 |
| 20260503131013 | 56 | 33 | 0.0 | 2.0 | 0.00 | 0.00 | 0.00 | 79 | 1014.2 |
| 20260503130517 | 56 | 117 | 1.0 | 2.0 | 0.00 | 0.00 | 0.00 | 79 | 1014.2 |
| 20260503110501 | 58 | 355 | 2.0 | 3.0 | 0.00 | 0.00 | 0.00 | 72 | 1014.4 |
| 20260503100105 | 59 | 355 | 2.0 | 4.0 | 0.00 | 0.00 | 0.00 | 69 | 1014.5 |
| 20260503081555 | 61 | 346 | 2.0 | 3.0 | 0.00 | 0.00 | 0.00 | 66 | 1014.6 |
| 20260503081043 | 61 | 346 | 2.0 | 3.0 | 0.00 | 0.00 | 0.00 | 65 | 1014.5 |
| 20260503080546 | 61 | 346 | 2.0 | 4.0 | 0.00 | 0.00 | 0.00 | 66 | 1014.5 |
| 20260503072540 | 62 | 355 | 2.0 | 4.0 | 0.00 | 0.00 | 0.00 | 63 | 1014.4 |
| 20260503072039 | 61 | 336 | 2.0 | 4.0 | 0.00 | 0.00 | 0.00 | 63 | 1014.4 |
| 20260503071601 | 61 | 348 | 2.0 | 4.0 | 0.00 | 0.00 | 0.00 | 65 | 1014.4 |
| 20260503071038 | 61 | 346 | 2.0 | 4.0 | 0.00 | 0.00 | 0.00 | 63 | 1014.4 |
| 20260503070537 | 61 | 346 | 2.0 | 4.0 | 0.00 | 0.00 | 0.00 | 64 | 1014.4 |
| 20260503055035 | 60 | 344 | 2.0 | 4.0 | 0.00 | 0.00 | 0.00 | 68 | 1014.4 |
| 20260503054550 | 60 | 9 | 2.0 | 3.0 | 0.00 | 0.00 | 0.00 | 70 | 1014.4 |
| 20260503054033 | 60 | 9 | 2.0 | 3.0 | 0.00 | 0.00 | 0.00 | 73 | 1014.4 |
| 20260503053533 | 60 | 9 | 2.0 | 3.0 | 0.00 | 0.00 | 0.00 | 72 | 1014.4 |
| 20260503053033 | 60 | 9 | 1.0 | 3.0 | 0.00 | 0.00 | 0.00 | 72 | 1014.4 |
| 20260503052533 | 60 | 5 | 1.0 | 4.0 | 0.00 | 0.00 | 0.00 | 71 | 1014.4 |
| 20260503052033 | 61 | 5 | 1.0 | 4.0 | 0.00 | 0.00 | 0.00 | 70 | 1014.4 |
| 20260503051543 | 61 | 9 | 1.0 | 4.0 | 0.00 | 0.00 | 0.00 | 69 | 1014.4 |
| 20260503051034 | 61 | 5 | 2.0 | 5.0 | 0.00 | 0.00 | 0.00 | 67 | 1014.3 |
| 20260503050532 | 61 | 9 | 2.0 | 5.0 | 0.00 | 0.00 | 0.00 | 67 | 1014.3 |
| 20260503050033 | 61 | 338 | 2.0 | 4.0 | 0.00 | 0.00 | 0.00 | 68 | 1014.3 |
| 20260503045532 | 61 | 344 | 2.0 | 3.0 | 0.00 | 0.00 | 0.00 | 69 | 1014.2 |
| 20260503045034 | 61 | 327 | 1.0 | 3.0 | 0.00 | 0.00 | 0.00 | 69 | 1014.3 |
| 20260503044532 | 61 | 347 | 2.0 | 5.0 | 0.00 | 0.00 | 0.00 | 69 | 1014.1 |
| 20260503044030 | 61 | 346 | 2.0 | 6.0 | 0.00 | 0.00 | 0.00 | 69 | 1014.2 |
| 20260503043530 | 61 | 344 | 2.0 | 6.0 | 0.00 | 0.00 | 0.00 | 69 | 1014.6 |
| 20260503043030 | 61 | 344 | 2.0 | 4.0 | 0.00 | 0.00 | 0.00 | 69 | 1014.1 |
| 20260503042530 | 61 | 344 | 2.0 | 5.0 | 0.00 | 0.00 | 0.00 | 69 | 1014.0 |
| 20260503042030 | 60 | 347 | 2.0 | 5.0 | 0.00 | 0.00 | 0.00 | 71 | 1013.9 |
| 20260503041533 | 60 | 22 | 2.0 | 4.0 | 0.00 | 0.00 | 0.00 | 71 | 1014.0 |
| 20260503041030 | 60 | 30 | 2.0 | 3.0 | 0.00 | 0.00 | 0.00 | 71 | 1013.9 |
| 20260503040532 | 60 | 36 | 1.0 | 3.0 | 0.00 | 0.00 | 0.00 | 72 | 1013.9 |
| 20260503040029 | 60 | 19 | 1.0 | 3.0 | 0.00 | 0.00 | 0.00 | 72 | 1013.8 |
| 20260503035529 | 60 | 19 | 1.0 | 3.0 | 0.00 | 0.00 | 0.00 | 73 | 1013.8 |
| 20260503035030 | 60 | 19 | 1.0 | 2.0 | 0.00 | 0.00 | 0.00 | 73 | 1014.0 |
| 20260503034529 | 61 | 19 | 1.0 | 2.0 | 0.00 | 0.00 | 0.00 | 73 | 1013.6 |
| 20260503034028 | 61 | 19 | 0.0 | 2.0 | 0.00 | 0.00 | 0.00 | 73 | 1013.5 |
| 20260503033528 | 61 | 19 | 1.0 | 2.0 | 0.00 | 0.00 | 0.00 | 73 | 1013.5 |
| 20260503033028 | 61 | 19 | 0.0 | 2.0 | 0.00 | 0.00 | 0.00 | 73 | 1013.5 |
| 20260503032528 | 61 | 19 | 1.0 | 2.0 | 0.00 | 0.00 | 0.00 | 73 | 1013.5 |
| 20260503032029 | 61 | 19 | 1.0 | 2.0 | 0.00 | 0.00 | 0.00 | 73 | 1013.4 |
| 20260503031532 | 62 | 19 | 0.0 | 2.0 | 0.00 | 0.00 | 0.00 | 73 | 1013.4 |
| 20260503031028 | 62 | 27 | 0.0 | 2.0 | 0.00 | 0.00 | 0.00 | 71 | 1013.4 |
| 20260503030626 | 62 | 27 | 0.0 | 2.0 | 0.00 | 0.00 | 0.00 | 72 | 1013.3 |
| 20260503030030 | 62 | 269 | 0.0 | 2.0 | 0.00 | 0.00 | 0.00 | 73 | 1013.2 |
| 20260503025526 | 63 | 212 | 1.0 | 4.0 | 0.00 | 0.00 | 0.00 | 70 | 1013.2 |
| 20260503025025 | 63 | 196 | 1.0 | 4.0 | 0.00 | 0.00 | 0.00 | 71 | 1013.1 |
| 20260503024532 | 63 | 204 | 1.0 | 3.0 | 0.00 | 0.00 | 0.00 | 71 | 1013.1 |
| 20260503024025 | 63 | 204 | 0.0 | 2.0 | 0.00 | 0.00 | 0.00 | 71 | 1013.1 |
| 20260503023525 | 63 | 202 | 0.0 | 2.0 | 0.00 | 0.00 | 0.00 | 72 | 1013.0 |
| 20260503023024 | 63 | 317 | 0.0 | 4.0 | 0.00 | 0.00 | 0.00 | 72 | 1013.0 |
| 20260503022523 | 64 | 304 | 1.0 | 5.0 | 0.00 | 0.00 | 0.00 | 71 | 1013.0 |
| 20260503022024 | 64 | 319 | 1.0 | 5.0 | 0.00 | 0.00 | 0.00 | 70 | 1013.1 |
| 20260503021523 | 65 | 145 | 0.0 | 4.0 | 0.00 | 0.00 | 0.00 | 68 | 1013.1 |
| 20260503021023 | 65 | 338 | 0.0 | 3.0 | 0.00 | 0.00 | 0.00 | 67 | 1013.2 |
| 20260503020527 | 65 | 297 | 1.0 | 4.0 | 0.00 | 0.00 | 0.00 | 67 | 1013.1 |
| 20260503020023 | 65 | 291 | 2.0 | 4.0 | 0.00 | 0.00 | 0.00 | 67 | 1013.2 |
| 20260503015521 | 65 | 254 | 0.0 | 3.0 | 0.00 | 0.00 | 0.00 | 69 | 1013.2 |
| 20260503015021 | 66 | 302 | 0.0 | 6.0 | 0.00 | 0.00 | 0.00 | 69 | 1013.3 |
| 20260503014521 | 66 | 36 | 1.0 | 6.0 | 0.00 | 0.00 | 0.00 | 67 | 1013.2 |
| 20260503014020 | 66 | 331 | 0.0 | 3.0 | 0.00 | 0.00 | 0.00 | 67 | 1013.4 |
| 20260503013520 | 66 | 333 | 1.0 | 5.0 | 0.00 | 0.00 | 0.00 | 67 | 1013.4 |
| 20260503013030 | 66 | 275 | 1.0 | 5.0 | 0.00 | 0.00 | 0.00 | 67 | 1013.4 |
| 20260503012523 | 67 | 279 | 1.0 | 3.0 | 0.00 | 0.00 | 0.00 | 67 | 1013.4 |
| 20260503012020 | 67 | 18 | 1.0 | 3.0 | 0.00 | 0.00 | 0.00 | 68 | 1013.4 |
| 20260503011520 | 67 | 224 | 0.0 | 7.0 | 0.00 | 0.00 | 0.00 | 68 | 1013.5 |
| 20260503011020 | 67 | 126 | 1.0 | 7.0 | 0.00 | 0.00 | 0.00 | 68 | 1013.6 |
| 20260503010518 | 67 | 142 | 1.0 | 6.0 | 0.00 | 0.00 | 0.00 | 65 | 1013.6 |
| 20260503010018 | 68 | 222 | 1.0 | 4.0 | 0.00 | 0.00 | 0.00 | 65 | 1013.6 |
| 20260503005518 | 68 | 206 | 1.0 | 3.0 | 0.00 | 0.00 | 0.00 | 64 | 1013.6 |
| 20260503005018 | 68 | 247 | 0.0 | 3.0 | 0.00 | 0.00 | 0.00 | 63 | 1013.6 |
| 20260503004518 | 68 | 120 | 0.0 | 3.0 | 0.00 | 0.00 | 0.00 | 62 | 1013.7 |
| 20260503004016 | 68 | 57 | 0.0 | 2.0 | 0.00 | 0.00 | 0.00 | 64 | 1013.6 |
| 20260503003516 | 68 | 266 | 0.0 | 6.0 | 0.00 | 0.00 | 0.00 | 66 | 1013.7 |
| 20260503003022 | 68 | 276 | 2.0 | 9.0 | 0.00 | 0.00 | 0.00 | 64 | 1013.7 |
| 20260503002516 | 68 | 171 | 1.0 | 9.0 | 0.00 | 0.00 | 0.00 | 62 | 1013.6 |
| 20260503002016 | 68 | 269 | 1.0 | 4.0 | 0.00 | 0.00 | 0.00 | 64 | 1013.6 |
| 20260503001515 | 68 | 257 | 1.0 | 3.0 | 0.00 | 0.00 | 0.00 | 62 | 1013.8 |
| 20260503001015 | 69 | 273 | 0.0 | 4.0 | 0.00 | 0.00 | 0.00 | 62 | 1013.9 |
| 20260503000518 | 68 | 338 | 0.0 | 4.0 | 0.00 | 0.00 | 0.00 | 64 | 1013.8 |
| 20260503000013 | 69 | 314 | 1.0 | 6.0 | 0.00 | 0.00 | 0.00 | 63 | 1013.9 |
| 20260502235513 | 69 | 29 | 3.0 | 6.0 | 0.00 | 0.00 | 0.00 | 63 | 1013.9 |
| 20260502235013 | 69 | 63 | 1.0 | 3.0 | 0.00 | 0.00 | 0.00 | 63 | 1014.0 |
| 20260502234519 | 69 | 144 | 1.0 | 4.0 | 0.00 | 0.00 | 0.00 | 65 | 1014.0 |
| 20260502234012 | 69 | 161 | 0.0 | 4.0 | 0.00 | 0.00 | 0.00 | 64 | 1014.1 |
| 20260502233511 | 69 | 238 | 0.0 | 4.0 | 0.00 | 0.00 | 0.00 | 66 | 1014.1 |
| 20260502233012 | 69 | 238 | 1.0 | 4.0 | 0.00 | 0.00 | 0.00 | 65 | 1014.2 |
| 20260502232510 | 69 | 229 | 1.0 | 5.0 | 0.00 | 0.00 | 0.00 | 65 | 1014.2 |
| 20260502232011 | 69 | 275 | 0.0 | 5.0 | 0.00 | 0.00 | 0.00 | 67 | 1014.3 |
| 20260502231510 | 69 | 317 | 1.0 | 4.0 | 0.00 | 0.00 | 0.00 | 67 | 1014.3 |
| 20260502231010 | 69 | 205 | 0.0 | 4.0 | 0.00 | 0.00 | 0.00 | 65 | 1014.3 |
| 20260502230509 | 69 | 46 | 1.0 | 8.0 | 0.00 | 0.00 | 0.00 | 64 | 1014.4 |
| 20260502230009 | 69 | 335 | 1.0 | 8.0 | 0.00 | 0.00 | 0.00 | 66 | 1014.5 |
| 20260502225507 | 69 | 240 | 1.0 | 6.0 | 0.00 | 0.00 | 0.00 | 64 | 1014.6 |
| 20260502225007 | 69 | 313 | 1.0 | 5.0 | 0.00 | 0.00 | 0.00 | 64 | 1014.7 |
| 20260502224507 | 69 | 338 | 0.0 | 7.0 | 0.00 | 0.00 | 0.00 | 65 | 1014.7 |
| 20260502224008 | 69 | 348 | 2.0 | 8.0 | 0.00 | 0.00 | 0.00 | 68 | 1014.9 |
| 20260502223505 | 69 | 302 | 2.0 | 8.0 | 0.00 | 0.00 | 0.00 | 65 | 1015.0 |
| 20260502223005 | 69 | 12 | 3.0 | 7.0 | 0.00 | 0.00 | 0.00 | 66 | 1015.0 |
| 20260502222504 | 69 | 286 | 2.0 | 5.0 | 0.00 | 0.00 | 0.00 | 63 | 1015.1 |
| 20260502222003 | 70 | 333 | 1.0 | 5.0 | 0.00 | 0.00 | 0.00 | 66 | 1015.1 |
| 20260502221502 | 70 | 331 | 0.0 | 5.0 | 0.00 | 0.00 | 0.00 | 69 | 1015.1 |
| 20260502221002 | 69 | 298 | 2.0 | 5.0 | 0.00 | 0.00 | 0.00 | 68 | 1015.1 |
| 20260502220502 | 69 | 264 | 2.0 | 4.0 | 0.00 | 0.00 | 0.00 | 64 | 1015.2 |